Time,TemperatureF,DewpointF,PressureIn,WindDirection,WindDirectionDegrees,WindSpeedMPH,WindSpeedGustMPH,Humidity,HourlyPrecipIn,Conditions,Clouds,dailyrainin,SoftwareType,DateUTC
2013-01-21 00:02:00,7.9,4.6,30.62,ENE,57,0.0,2.0,86,0.00,,,0.00,LWC V2.10 B1813,2013-01-21 09:02:00,
2013-01-21 00:07:00,7.9,4.6,30.62,ENE,57,0.0,0.0,86,0.00,,,0.00,LWC V2.10 B1813,2013-01-21 09:07:00,
2013-01-21 00:12:00,7.8,4.5,30.62,ENE,58,0.0,0.0,86,0.00,,,0.00,LWC V2.10 B1813,2013-01-21 09:12:00,
2013-01-21 00:17:00,7.8,4.5,30.62,ENE,57,0.0,0.0,86,0.00,,,0.00,LWC V2.10 B1813,2013-01-21 09:17:00,
2013-01-21 00:22:00,7.9,4.6,30.62,ENE,57,0.0,0.0,86,0.00,,,0.00,LWC V2.10 B1813,2013-01-21 09:22:00,
2013-01-21 00:27:00,7.9,4.6,30.63,ENE,58,0.0,1.0,86,0.00,,,0.00,LWC V2.10 B1813,2013-01-21 09:27:00,
2013-01-21 00:32:00,7.8,4.5,30.63,ENE,57,0.0,0.0,86,0.00,,,0.00,LWC V2.10 B1813,2013-01-21 09:32:00,
2013-01-21 00:37:00,7.8,4.5,30.63,ENE,58,0.0,1.0,86,0.00,,,0.00,LWC V2.10 B1813,2013-01-21 09:37:00,
2013-01-21 00:42:00,7.8,4.5,30.63,ENE,57,0.0,1.0,86,0.00,,,0.00,LWC V2.10 B1813,2013-01-21 09:42:00,
2013-01-21 00:47:00,7.7,4.4,30.63,ENE,58,1.0,2.0,86,0.00,,,0.00,LWC V2.10 B1813,2013-01-21 09:47:00,
2013-01-21 00:52:00,7.7,4.4,30.63,ENE,57,0.0,1.0,86,0.00,,,0.00,LWC V2.10 B1813,2013-01-21 09:52:00,
2013-01-21 00:57:00,7.8,4.5,30.63,ENE,58,0.0,1.0,86,0.00,,,0.00,LWC V2.10 B1813,2013-01-21 09:57:00,
2013-01-21 01:02:00,7.7,4.4,30.63,ENE,58,1.0,2.0,86,0.00,,,0.00,LWC V2.10 B1813,2013-01-21 10:02:00,
2013-01-21 01:07:00,7.7,4.4,30.64,ENE,61,1.0,2.0,86,0.00,,,0.00,LWC V2.10 B1813,2013-01-21 10:07:00,
2013-01-21 01:12:00,7.6,4.3,30.64,ENE,61,0.0,0.0,86,0.00,,,0.00,LWC V2.10 B1813,2013-01-21 10:12:00,
2013-01-21 01:17:00,7.6,4.3,30.64,ENE,62,0.0,0.0,86,0.00,,,0.00,LWC V2.10 B1813,2013-01-21 10:17:00,
2013-01-21 01:22:00,7.5,4.2,30.64,ENE,62,0.0,0.0,86,0.00,,,0.00,LWC V2.10 B1813,2013-01-21 10:22:00,
2013-01-21 01:27:00,7.5,4.2,30.64,ENE,63,0.0,0.0,86,0.00,,,0.00,LWC V2.10 B1813,2013-01-21 10:27:00,
2013-01-21 01:32:00,7.5,4.2,30.64,ENE,63,0.0,0.0,86,0.00,,,0.00,LWC V2.10 B1813,2013-01-21 10:32:00,
2013-01-21 01:37:00,7.5,4.2,30.64,ENE,62,0.0,0.0,86,0.00,,,0.00,LWC V2.10 B1813,2013-01-21 10:37:00,
2013-01-21 01:42:00,7.5,4.2,30.64,ENE,63,0.0,0.0,86,0.00,,,0.00,LWC V2.10 B1813,2013-01-21 10:42:00,
2013-01-21 01:47:00,7.5,4.2,30.64,ENE,61,0.0,0.0,86,0.00,,,0.00,LWC V2.10 B1813,2013-01-21 10:47:00,
2013-01-21 01:52:00,7.6,4.3,30.64,ENE,63,0.0,1.0,86,0.00,,,0.00,LWC V2.10 B1813,2013-01-21 10:52:00,
2013-01-21 01:57:00,7.6,4.3,30.64,ENE,73,2.0,3.0,86,0.00,,,0.00,LWC V2.10 B1813,2013-01-21 10:57:00,
2013-01-21 02:02:00,7.6,4.3,30.64,ENE,72,1.0,2.0,86,0.00,,,0.00,LWC V2.10 B1813,2013-01-21 11:02:00,
2013-01-21 02:07:00,7.5,4.2,30.64,ENE,73,1.0,2.0,86,0.00,,,0.00,LWC V2.10 B1813,2013-01-21 11:07:00,
2013-01-21 02:12:00,7.5,4.2,30.64,ENE,72,0.0,2.0,86,0.00,,,0.00,LWC V2.10 B1813,2013-01-21 11:12:00,
2013-01-21 02:17:00,7.5,4.2,30.64,ENE,72,0.0,0.0,86,0.00,,,0.00,LWC V2.10 B1813,2013-01-21 11:17:00,
2013-01-21 02:22:00,7.5,4.2,30.64,ENE,72,0.0,0.0,86,0.00,,,0.00,LWC V2.10 B1813,2013-01-21 11:22:00,
2013-01-21 02:27:00,7.5,4.2,30.64,ENE,72,0.0,1.0,86,0.00,,,0.00,LWC V2.10 B1813,2013-01-21 11:27:00,
2013-01-21 02:32:00,7.5,4.5,30.64,ENE,72,0.0,0.0,87,0.00,,,0.00,LWC V2.10 B1813,2013-01-21 11:32:00,
2013-01-21 02:37:00,7.5,4.2,30.65,ENE,72,0.0,1.0,86,0.00,,,0.00,LWC V2.10 B1813,2013-01-21 11:37:00,
2013-01-21 02:42:00,7.4,4.1,30.65,ENE,75,2.0,3.0,86,0.00,,,0.00,LWC V2.10 B1813,2013-01-21 11:42:00,
2013-01-21 02:47:00,7.4,4.1,30.65,ENE,75,2.0,2.0,86,0.00,,,0.00,LWC V2.10 B1813,2013-01-21 11:47:00,
2013-01-21 02:52:00,7.4,4.4,30.65,ENE,75,0.0,0.0,87,0.00,,,0.00,LWC V2.10 B1813,2013-01-21 11:52:00,
2013-01-21 02:57:00,7.3,4.3,30.65,ENE,75,0.0,0.0,87,0.00,,,0.00,LWC V2.10 B1813,2013-01-21 11:57:00,
2013-01-21 03:02:00,7.3,4.3,30.65,ENE,75,0.0,0.0,87,0.00,,,0.00,LWC V2.10 B1813,2013-01-21 12:02:00,
2013-01-21 03:07:00,7.2,3.9,30.65,ENE,75,0.0,0.0,86,0.00,,,0.00,LWC V2.10 B1813,2013-01-21 12:07:00,
2013-01-21 03:12:00,7.2,3.9,30.65,ENE,75,0.0,0.0,86,0.00,,,0.00,LWC V2.10 B1813,2013-01-21 12:12:00,
2013-01-21 03:17:00,7.2,3.9,30.65,ENE,75,0.0,0.0,86,0.00,,,0.00,LWC V2.10 B1813,2013-01-21 12:17:00,
2013-01-21 03:22:00,7.2,3.9,30.65,ENE,75,0.0,0.0,86,0.00,,,0.00,LWC V2.10 B1813,2013-01-21 12:22:00,
2013-01-21 03:27:00,7.3,4.0,30.65,ENE,75,0.0,0.0,86,0.00,,,0.00,LWC V2.10 B1813,2013-01-21 12:27:00,
2013-01-21 03:32:00,7.3,4.0,30.66,ENE,75,0.0,0.0,86,0.00,,,0.00,LWC V2.10 B1813,2013-01-21 12:32:00,
2013-01-21 03:37:00,7.3,4.0,30.65,ENE,75,0.0,0.0,86,0.00,,,0.00,LWC V2.10 B1813,2013-01-21 12:37:00,
2013-01-21 03:42:00,7.3,4.0,30.65,ENE,75,0.0,0.0,86,0.00,,,0.00,LWC V2.10 B1813,2013-01-21 12:42:00,
2013-01-21 03:47:00,7.3,4.0,30.65,ENE,75,0.0,0.0,86,0.00,,,0.00,LWC V2.10 B1813,2013-01-21 12:47:00,
2013-01-21 03:52:00,7.4,4.1,30.65,ENE,75,0.0,0.0,86,0.00,,,0.00,LWC V2.10 B1813,2013-01-21 12:52:00,
2013-01-21 03:57:00,7.3,4.0,30.65,ENE,76,0.0,0.0,86,0.00,,,0.00,LWC V2.10 B1813,2013-01-21 12:57:00,
2013-01-21 04:02:00,7.4,4.1,30.65,ENE,75,0.0,0.0,86,0.00,,,0.00,LWC V2.10 B1813,2013-01-21 13:02:00,
2013-01-21 04:07:00,7.4,4.1,30.65,ENE,75,0.0,0.0,86,0.00,,,0.00,LWC V2.10 B1813,2013-01-21 13:07:00,
2013-01-21 04:12:00,7.5,4.2,30.66,ENE,74,0.0,0.0,86,0.00,,,0.00,LWC V2.10 B1813,2013-01-21 13:12:00,
2013-01-21 04:17:00,7.5,4.2,30.66,ENE,74,0.0,1.0,86,0.00,,,0.00,LWC V2.10 B1813,2013-01-21 13:17:00,
2013-01-21 04:22:00,7.5,4.0,30.66,ENE,75,1.0,1.0,85,0.00,,,0.00,LWC V2.10 B1813,2013-01-21 13:22:00,
2013-01-21 04:27:00,7.5,4.0,30.66,ENE,75,0.0,1.0,85,0.00,,,0.00,LWC V2.10 B1813,2013-01-21 13:27:00,
2013-01-21 04:32:00,7.5,4.0,30.66,ENE,75,1.0,1.0,85,0.00,,,0.00,LWC V2.10 B1813,2013-01-21 13:32:00,
2013-01-21 04:37:00,7.4,3.9,30.66,ENE,74,1.0,1.0,85,0.00,,,0.00,LWC V2.10 B1813,2013-01-21 13:37:00,
2013-01-21 04:42:00,7.3,3.8,30.66,ENE,75,0.0,0.0,85,0.00,,,0.00,LWC V2.10 B1813,2013-01-21 13:42:00,
2013-01-21 04:47:00,7.3,3.8,30.66,ENE,74,0.0,0.0,85,0.00,,,0.00,LWC V2.10 B1813,2013-01-21 13:47:00,
2013-01-21 04:52:00,7.2,3.7,30.66,ENE,75,0.0,1.0,85,0.00,,,0.00,LWC V2.10 B1813,2013-01-21 13:52:00,
2013-01-21 04:57:00,7.2,3.9,30.66,ENE,75,0.0,0.0,86,0.00,,,0.00,LWC V2.10 B1813,2013-01-21 13:57:00,
2013-01-21 05:02:00,7.2,3.9,30.66,ENE,75,0.0,0.0,86,0.00,,,0.00,LWC V2.10 B1813,2013-01-21 14:02:00,
2013-01-21 05:07:00,7.2,3.9,30.66,ENE,75,0.0,0.0,86,0.00,,,0.00,LWC V2.10 B1813,2013-01-21 14:07:00,
2013-01-21 05:12:00,7.1,3.8,30.66,ENE,75,0.0,0.0,86,0.00,,,0.00,LWC V2.10 B1813,2013-01-21 14:12:00,
2013-01-21 05:17:00,7.1,3.6,30.66,ENE,74,0.0,0.0,85,0.00,,,0.00,LWC V2.10 B1813,2013-01-21 14:17:00,
2013-01-21 05:22:00,7.0,3.7,30.66,ENE,74,0.0,0.0,86,0.00,,,0.00,LWC V2.10 B1813,2013-01-21 14:22:00,
2013-01-21 05:27:00,6.9,3.6,30.66,ENE,75,0.0,1.0,86,0.00,,,0.00,LWC V2.10 B1813,2013-01-21 14:27:00,
2013-01-21 05:32:00,6.9,3.6,30.66,ENE,75,0.0,1.0,86,0.00,,,0.00,LWC V2.10 B1813,2013-01-21 14:32:00,
2013-01-21 05:37:00,6.9,3.6,30.67,ENE,75,0.0,0.0,86,0.00,,,0.00,LWC V2.10 B1813,2013-01-21 14:37:00,
2013-01-21 05:42:00,6.9,3.4,30.67,ENE,75,0.0,0.0,85,0.00,,,0.00,LWC V2.10 B1813,2013-01-21 14:42:00,
2013-01-21 05:47:00,6.8,3.3,30.67,ENE,75,1.0,1.0,85,0.00,,,0.00,LWC V2.10 B1813,2013-01-21 14:47:00,
2013-01-21 05:52:00,6.7,3.2,30.67,ENE,75,1.0,1.0,85,0.00,,,0.00,LWC V2.10 B1813,2013-01-21 14:52:00,
2013-01-21 05:57:00,6.7,3.2,30.67,ENE,74,2.0,3.0,85,0.00,,,0.00,LWC V2.10 B1813,2013-01-21 14:57:00,
2013-01-21 06:02:00,6.7,3.2,30.67,ENE,75,1.0,2.0,85,0.00,,,0.00,LWC V2.10 B1813,2013-01-21 15:02:00,
2013-01-21 06:07:00,6.7,3.2,30.67,ENE,75,2.0,2.0,85,0.00,,,0.00,LWC V2.10 B1813,2013-01-21 15:07:00,
2013-01-21 06:12:00,6.7,3.2,30.67,ENE,75,1.0,2.0,85,0.00,,,0.00,LWC V2.10 B1813,2013-01-21 15:12:00,
2013-01-21 06:17:00,6.7,2.9,30.67,ENE,75,0.0,1.0,84,0.00,,,0.00,LWC V2.10 B1813,2013-01-21 15:17:00,
2013-01-21 06:22:00,6.8,3.0,30.67,ENE,75,0.0,0.0,84,0.00,,,0.00,LWC V2.10 B1813,2013-01-21 15:22:00,
2013-01-21 06:27:00,6.8,3.0,30.67,ENE,75,0.0,0.0,84,0.00,,,0.00,LWC V2.10 B1813,2013-01-21 15:27:00,
2013-01-21 06:32:00,6.8,3.0,30.67,ENE,75,0.0,0.0,84,0.00,,,0.00,LWC V2.10 B1813,2013-01-21 15:32:00,
2013-01-21 06:37:00,6.8,3.0,30.67,ENE,75,0.0,0.0,84,0.00,,,0.00,LWC V2.10 B1813,2013-01-21 15:37:00,
2013-01-21 06:42:00,6.8,3.0,30.67,ENE,75,0.0,1.0,84,0.00,,,0.00,LWC V2.10 B1813,2013-01-21 15:42:00,
2013-01-21 06:47:00,6.7,2.9,30.66,ENE,75,0.0,1.0,84,0.00,,,0.00,LWC V2.10 B1813,2013-01-21 15:47:00,
2013-01-21 06:52:00,6.7,2.7,30.66,ENE,75,0.0,1.0,83,0.00,,,0.00,LWC V2.10 B1813,2013-01-21 15:52:00,
2013-01-21 06:57:00,6.8,2.8,30.66,ENE,75,0.0,0.0,83,0.00,,,0.00,LWC V2.10 B1813,2013-01-21 15:57:00,
2013-01-21 07:02:00,6.8,2.8,30.66,ENE,75,0.0,1.0,83,0.00,,,0.00,LWC V2.10 B1813,2013-01-21 16:02:00,
2013-01-21 07:07:00,6.7,2.7,30.66,ENE,74,1.0,2.0,83,0.00,,,0.00,LWC V2.10 B1813,2013-01-21 16:07:00,
2013-01-21 07:12:00,6.6,2.6,30.66,ENE,75,0.0,1.0,83,0.00,,,0.00,LWC V2.10 B1813,2013-01-21 16:12:00,
2013-01-21 07:17:00,6.5,2.5,30.66,ENE,75,0.0,0.0,83,0.00,,,0.00,LWC V2.10 B1813,2013-01-21 16:17:00,
2013-01-21 07:22:00,6.5,2.7,30.66,ENE,78,0.0,2.0,84,0.00,,,0.00,LWC V2.10 B1813,2013-01-21 16:22:00,
2013-01-21 07:27:00,6.4,2.6,30.67,East,82,1.0,2.0,84,0.00,,,0.00,LWC V2.10 B1813,2013-01-21 16:27:00,
2013-01-21 07:32:00,6.4,2.6,30.67,East,82,0.0,1.0,84,0.00,,,0.00,LWC V2.10 B1813,2013-01-21 16:32:00,
2013-01-21 07:37:00,6.3,2.5,30.67,East,82,0.0,1.0,84,0.00,,,0.00,LWC V2.10 B1813,2013-01-21 16:37:00,
2013-01-21 07:42:00,6.3,2.5,30.67,East,82,0.0,0.0,84,0.00,,,0.00,LWC V2.10 B1813,2013-01-21 16:42:00,
2013-01-21 07:47:00,6.3,2.5,30.67,East,82,0.0,2.0,84,0.00,,,0.00,LWC V2.10 B1813,2013-01-21 16:47:00,
2013-01-21 07:52:00,6.2,2.4,30.67,East,82,1.0,2.0,84,0.00,,,0.00,LWC V2.10 B1813,2013-01-21 16:52:00,
2013-01-21 07:57:00,6.1,2.1,30.67,ENE,59,2.0,3.0,83,0.00,,,0.00,LWC V2.10 B1813,2013-01-21 16:57:00,
2013-01-21 08:02:00,6.2,1.9,30.67,ENE,67,1.0,2.0,82,0.00,,,0.00,LWC V2.10 B1813,2013-01-21 17:02:00,
2013-01-21 08:07:00,6.2,2.2,30.67,ENE,67,0.0,1.0,83,0.00,,,0.00,LWC V2.10 B1813,2013-01-21 17:07:00,
2013-01-21 08:12:00,6.0,2.0,30.67,ENE,76,2.0,3.0,83,0.00,,,0.00,LWC V2.10 B1813,2013-01-21 17:12:00,
2013-01-21 08:17:00,5.9,1.9,30.67,ENE,76,2.0,3.0,83,0.00,,,0.00,LWC V2.10 B1813,2013-01-21 17:17:00,
2013-01-21 08:22:00,5.8,1.8,30.68,ENE,76,1.0,1.0,83,0.00,,,0.00,LWC V2.10 B1813,2013-01-21 17:22:00,
2013-01-21 08:27:00,5.7,1.7,30.68,ENE,76,0.0,1.0,83,0.00,,,0.00,LWC V2.10 B1813,2013-01-21 17:27:00,
2013-01-21 08:32:00,5.7,1.7,30.68,ENE,76,0.0,1.0,83,0.00,,,0.00,LWC V2.10 B1813,2013-01-21 17:32:00,
2013-01-21 08:37:00,5.7,1.7,30.68,NE,52,1.0,3.0,83,0.00,,,0.00,LWC V2.10 B1813,2013-01-21 17:37:00,
2013-01-21 08:42:00,5.8,1.5,30.67,NE,53,0.0,3.0,82,0.00,,,0.00,LWC V2.10 B1813,2013-01-21 17:42:00,
2013-01-21 08:47:00,5.9,1.4,30.68,NE,51,0.0,0.0,81,0.00,,,0.00,LWC V2.10 B1813,2013-01-21 17:47:00,
2013-01-21 08:52:00,6.0,1.4,30.68,NE,53,0.0,1.0,81,0.00,,,0.00,LWC V2.10 B1813,2013-01-21 17:52:00,
2013-01-21 08:57:00,6.0,1.4,30.68,NE,52,0.0,1.0,81,0.00,,,0.00,LWC V2.10 B1813,2013-01-21 17:57:00,
2013-01-21 09:02:00,6.1,1.3,30.68,NE,51,0.0,2.0,80,0.00,,,0.00,LWC V2.10 B1813,2013-01-21 18:02:00,
2013-01-21 09:07:00,6.0,1.2,30.68,NE,52,2.0,3.0,80,0.00,,,0.00,LWC V2.10 B1813,2013-01-21 18:07:00,
2013-01-21 09:12:00,6.0,1.2,30.68,NE,53,1.0,2.0,80,0.00,,,0.00,LWC V2.10 B1813,2013-01-21 18:12:00,
2013-01-21 09:17:00,6.0,1.2,30.68,NE,53,0.0,1.0,80,0.00,,,0.00,LWC V2.10 B1813,2013-01-21 18:17:00,
2013-01-21 09:22:00,6.0,1.2,30.68,NE,53,0.0,0.0,80,0.00,,,0.00,LWC V2.10 B1813,2013-01-21 18:22:00,
2013-01-21 09:27:00,5.9,1.1,30.68,NE,53,0.0,0.0,80,0.00,,,0.00,LWC V2.10 B1813,2013-01-21 18:27:00,
2013-01-21 09:32:00,5.8,1.0,30.68,NE,53,0.0,2.0,80,0.00,,,0.00,LWC V2.10 B1813,2013-01-21 18:32:00,
2013-01-21 09:37:00,5.8,1.0,30.68,NNE,31,0.0,2.0,80,0.00,,,0.00,LWC V2.10 B1813,2013-01-21 18:37:00,
2013-01-21 09:42:00,5.8,1.3,30.68,NNE,31,2.0,2.0,81,0.00,,,0.00,LWC V2.10 B1813,2013-01-21 18:42:00,
2013-01-21 09:47:00,5.8,1.3,30.68,North,355,0.0,2.0,81,0.00,,,0.00,LWC V2.10 B1813,2013-01-21 18:47:00,
2013-01-21 09:52:00,5.7,0.9,30.67,NE,49,5.0,5.0,80,0.00,,,0.00,LWC V2.10 B1813,2013-01-21 18:52:00,
2013-01-21 09:58:00,5.7,0.9,30.67,NNE,28,1.0,5.0,80,0.00,,,0.00,LWC V2.10 B1813,2013-01-21 18:58:00,
2013-01-21 10:03:00,5.6,0.8,30.67,NNE,28,0.0,0.0,80,0.00,,,0.00,LWC V2.10 B1813,2013-01-21 19:03:00,
2013-01-21 10:08:00,5.5,0.4,30.67,NNE,28,0.0,1.0,79,0.00,,,0.00,LWC V2.10 B1813,2013-01-21 19:08:00,
2013-01-21 10:13:00,5.4,0.3,30.67,NNE,28,0.0,1.0,79,0.00,,,0.00,LWC V2.10 B1813,2013-01-21 19:13:00,
2013-01-21 10:18:00,5.4,0.3,30.67,NNE,30,0.0,1.0,79,0.00,,,0.00,LWC V2.10 B1813,2013-01-21 19:18:00,
2013-01-21 10:23:00,5.4,0.3,30.67,NNE,30,0.0,2.0,79,0.00,,,0.00,LWC V2.10 B1813,2013-01-21 19:23:00,
2013-01-21 10:28:00,5.4,0.3,30.67,NNE,29,0.0,0.0,79,0.00,,,0.00,LWC V2.10 B1813,2013-01-21 19:28:00,
2013-01-21 10:33:00,5.4,0.6,30.67,NNE,19,0.0,1.0,80,0.00,,,0.00,LWC V2.10 B1813,2013-01-21 19:33:00,
2013-01-21 10:38:00,5.5,0.7,30.67,NNE,13,1.0,1.0,80,0.00,,,0.00,LWC V2.10 B1813,2013-01-21 19:38:00,
2013-01-21 10:43:00,5.4,0.6,30.67,North,355,1.0,2.0,80,0.00,,,0.00,LWC V2.10 B1813,2013-01-21 19:43:00,
2013-01-21 10:48:00,5.4,0.6,30.67,NNE,13,1.0,5.0,80,0.00,,,0.00,LWC V2.10 B1813,2013-01-21 19:48:00,
2013-01-21 10:53:00,5.5,0.4,30.67,NNE,32,3.0,4.0,79,0.00,,,0.00,LWC V2.10 B1813,2013-01-21 19:53:00,
2013-01-21 10:58:00,5.7,0.4,30.67,NE,36,1.0,2.0,78,0.00,,,0.00,LWC V2.10 B1813,2013-01-21 19:58:00,
2013-01-21 11:03:00,6.0,0.1,30.67,NE,53,1.0,3.0,76,0.00,,,0.00,LWC V2.10 B1813,2013-01-21 20:03:00,
2013-01-21 11:08:00,6.2,0.0,30.67,NE,49,1.0,3.0,75,0.00,,,0.00,LWC V2.10 B1813,2013-01-21 20:08:00,
2013-01-21 11:13:00,6.0,-0.2,30.67,ENE,76,2.0,3.0,75,0.00,,,0.00,LWC V2.10 B1813,2013-01-21 20:13:00,
2013-01-21 11:18:00,5.9,-0.3,30.67,NE,38,2.0,3.0,75,0.00,,,0.00,LWC V2.10 B1813,2013-01-21 20:18:00,
2013-01-21 11:23:00,5.9,-0.3,30.67,NE,37,1.0,1.0,75,0.00,,,0.00,LWC V2.10 B1813,2013-01-21 20:23:00,
2013-01-21 11:28:00,5.9,0.3,30.67,North,5,0.0,2.0,77,0.00,,,0.00,LWC V2.10 B1813,2013-01-21 20:28:00,
2013-01-21 11:33:00,5.6,0.0,30.67,North,5,0.0,1.0,77,0.00,,,0.00,LWC V2.10 B1813,2013-01-21 20:33:00,
2013-01-21 11:38:00,5.3,-0.3,30.67,North,0,0.0,1.0,77,0.00,,,0.00,LWC V2.10 B1813,2013-01-21 20:38:00,
2013-01-21 11:43:00,5.0,-0.9,30.67,North,5,0.0,0.0,76,0.00,,,0.00,LWC V2.10 B1813,2013-01-21 20:43:00,
2013-01-21 11:48:00,4.9,-0.7,30.67,NNE,22,1.0,1.0,77,0.00,,,0.00,LWC V2.10 B1813,2013-01-21 20:48:00,
2013-01-21 11:53:00,4.7,-1.2,30.67,NE,55,0.0,3.0,76,0.00,,,0.00,LWC V2.10 B1813,2013-01-21 20:53:00,
2013-01-21 11:58:00,4.7,-1.2,30.67,ENE,75,3.0,5.0,76,0.00,,,0.00,LWC V2.10 B1813,2013-01-21 20:58:00,
2013-01-21 12:03:00,4.9,-1.3,30.67,ENE,75,2.0,4.0,75,0.00,,,0.00,LWC V2.10 B1813,2013-01-21 21:03:00,
2013-01-21 12:08:00,4.9,-1.3,30.67,ENE,57,3.0,7.0,75,0.00,,,0.00,LWC V2.10 B1813,2013-01-21 21:08:00,
2013-01-21 12:13:00,4.9,-1.3,30.67,NE,46,4.0,4.0,75,0.00,,,0.00,LWC V2.10 B1813,2013-01-21 21:13:00,
2013-01-21 12:18:00,4.9,-1.3,30.67,ENE,77,3.0,6.0,75,0.00,,,0.00,LWC V2.10 B1813,2013-01-21 21:18:00,
2013-01-21 12:23:00,5.0,-1.2,30.67,ESE,107,3.0,4.0,75,0.00,,,0.00,LWC V2.10 B1813,2013-01-21 21:23:00,
2013-01-21 12:28:00,5.0,-0.9,30.68,ENE,75,1.0,3.0,76,0.00,,,0.00,LWC V2.10 B1813,2013-01-21 21:28:00,
2013-01-21 12:33:00,5.0,-0.9,30.68,ENE,75,1.0,1.0,76,0.00,,,0.00,LWC V2.10 B1813,2013-01-21 21:33:00,
2013-01-21 12:38:00,5.0,1.5,30.68,ENE,76,2.0,3.0,85,0.00,,,0.00,LWC V2.10 B1813,2013-01-21 21:38:00,
2013-01-21 12:43:00,5.1,-0.5,30.68,NNE,20,2.0,4.0,77,0.00,,,0.00,LWC V2.10 B1813,2013-01-21 21:43:00,
2013-01-21 12:48:00,5.3,0.2,30.68,NNE,14,0.0,1.0,79,0.00,,,0.00,LWC V2.10 B1813,2013-01-21 21:48:00,
2013-01-21 12:53:00,5.5,0.2,30.68,ENE,74,2.0,3.0,78,0.00,,,0.00,LWC V2.10 B1813,2013-01-21 21:53:00,
2013-01-21 12:58:00,5.7,0.1,30.68,ENE,74,0.0,0.0,77,0.00,,,0.00,LWC V2.10 B1813,2013-01-21 21:58:00,
2013-01-21 13:03:00,5.9,0.3,30.68,East,79,0.0,1.0,77,0.00,,,0.00,LWC V2.10 B1813,2013-01-21 22:03:00,
2013-01-21 13:08:00,6.1,0.5,30.67,East,79,1.0,2.0,77,0.00,,,0.00,LWC V2.10 B1813,2013-01-21 22:08:00,
2013-01-21 13:13:00,6.3,0.4,30.68,East,83,0.0,3.0,76,0.00,,,0.00,LWC V2.10 B1813,2013-01-21 22:13:00,
2013-01-21 13:18:00,6.4,0.5,30.68,East,83,0.0,2.0,76,0.00,,,0.00,LWC V2.10 B1813,2013-01-21 22:18:00,
2013-01-21 13:23:00,6.5,0.6,30.67,East,82,1.0,1.0,76,0.00,,,0.00,LWC V2.10 B1813,2013-01-21 22:23:00,
2013-01-21 13:28:00,6.5,0.6,30.67,East,83,1.0,1.0,76,0.00,,,0.00,LWC V2.10 B1813,2013-01-21 22:28:00,
2013-01-21 13:33:00,6.6,1.0,30.67,East,82,0.0,1.0,77,0.00,,,0.00,LWC V2.10 B1813,2013-01-21 22:33:00,
2013-01-21 13:38:00,6.8,1.7,30.67,East,83,0.0,1.0,79,0.00,,,0.00,LWC V2.10 B1813,2013-01-21 22:38:00,
2013-01-21 13:43:00,7.1,2.3,30.67,East,82,0.0,2.0,80,0.00,,,0.00,LWC V2.10 B1813,2013-01-21 22:43:00,
2013-01-21 13:48:00,7.2,2.1,30.67,North,355,0.0,1.0,79,0.00,,,0.00,LWC V2.10 B1813,2013-01-21 22:48:00,
2013-01-21 13:53:00,7.4,2.3,30.67,NNE,17,2.0,4.0,79,0.00,,,0.00,LWC V2.10 B1813,2013-01-21 22:53:00,
2013-01-21 13:58:00,7.6,2.2,30.67,NNE,17,1.0,2.0,78,0.00,,,0.00,LWC V2.10 B1813,2013-01-21 22:58:00,
2013-01-21 14:03:00,7.6,1.9,30.67,North,349,1.0,1.0,77,0.00,,,0.00,LWC V2.10 B1813,2013-01-21 23:03:00,
2013-01-21 14:08:00,7.7,2.3,30.67,North,350,0.0,0.0,78,0.00,,,0.00,LWC V2.10 B1813,2013-01-21 23:08:00,
2013-01-21 14:13:00,7.7,2.0,30.67,North,350,0.0,0.0,77,0.00,,,0.00,LWC V2.10 B1813,2013-01-21 23:13:00,
2013-01-21 14:18:00,7.6,2.2,30.66,NNW,348,0.0,1.0,78,0.00,,,0.00,LWC V2.10 B1813,2013-01-21 23:18:00,
2013-01-21 14:23:00,7.7,2.3,30.66,NNW,348,1.0,2.0,78,0.00,,,0.00,LWC V2.10 B1813,2013-01-21 23:23:00,
2013-01-21 14:28:00,7.7,2.3,30.66,NNE,27,1.0,4.0,78,0.00,,,0.00,LWC V2.10 B1813,2013-01-21 23:28:00,
2013-01-21 14:33:00,7.6,2.2,30.66,NNE,26,0.0,1.0,78,0.00,,,0.00,LWC V2.10 B1813,2013-01-21 23:33:00,
2013-01-21 14:38:00,7.5,1.8,30.66,NE,48,4.0,4.0,77,0.00,,,0.00,LWC V2.10 B1813,2013-01-21 23:38:00,
2013-01-21 14:43:00,7.5,1.8,30.66,ENE,59,4.0,6.0,77,0.00,,,0.00,LWC V2.10 B1813,2013-01-21 23:43:00,
2013-01-21 14:48:00,7.6,1.1,30.65,NE,38,5.0,9.0,74,0.00,,,0.00,LWC V2.10 B1813,2013-01-21 23:48:00,
2013-01-21 14:53:00,7.5,1.3,30.65,North,355,2.0,7.0,75,0.00,,,0.00,LWC V2.10 B1813,2013-01-21 23:53:00,
2013-01-21 14:58:00,7.4,0.9,30.65,ENE,65,3.0,7.0,74,0.00,,,0.00,LWC V2.10 B1813,2013-01-21 23:58:00,
2013-01-21 15:03:00,7.3,0.8,30.65,NE,45,3.0,6.0,74,0.00,,,0.00,LWC V2.10 B1813,2013-01-22 00:03:00,
2013-01-21 15:08:00,7.3,0.8,30.65,ENE,60,3.0,8.0,74,0.00,,,0.00,LWC V2.10 B1813,2013-01-22 00:08:00,
2013-01-21 15:13:00,7.3,0.5,30.65,ENE,64,5.0,8.0,73,0.00,,,0.00,LWC V2.10 B1813,2013-01-22 00:13:00,
2013-01-21 15:18:00,7.3,0.5,30.65,NE,51,2.0,6.0,73,0.00,,,0.00,LWC V2.10 B1813,2013-01-22 00:18:00,
2013-01-21 15:23:00,7.2,0.7,30.65,NNE,26,4.0,9.0,74,0.00,,,0.00,LWC V2.10 B1813,2013-01-22 00:23:00,
2013-01-21 15:28:00,7.2,0.4,30.65,ENE,72,4.0,7.0,73,0.00,,,0.00,LWC V2.10 B1813,2013-01-22 00:28:00,
2013-01-21 15:33:00,7.3,0.5,30.65,East,79,1.0,6.0,73,0.00,,,0.00,LWC V2.10 B1813,2013-01-22 00:33:00,
2013-01-21 15:38:00,7.3,0.5,30.65,NE,54,2.0,5.0,73,0.00,,,0.00,LWC V2.10 B1813,2013-01-22 00:38:00,
2013-01-21 15:43:00,7.1,0.3,30.64,NE,37,3.0,6.0,73,0.00,,,0.00,LWC V2.10 B1813,2013-01-22 00:43:00,
2013-01-21 15:48:00,6.8,0.3,30.64,NNE,18,3.0,5.0,74,0.00,,,0.00,LWC V2.10 B1813,2013-01-22 00:48:00,
2013-01-21 15:53:00,6.6,0.1,30.64,NNE,26,6.0,8.0,74,0.00,,,0.00,LWC V2.10 B1813,2013-01-22 00:53:00,
2013-01-21 15:58:00,6.5,0.0,30.64,ENE,57,2.0,6.0,74,0.00,,,0.00,LWC V2.10 B1813,2013-01-22 00:58:00,
2013-01-21 16:03:00,6.4,-0.4,30.64,NNE,22,2.0,5.0,73,0.00,,,0.00,LWC V2.10 B1813,2013-01-22 01:03:00,
2013-01-21 16:08:00,6.3,-0.5,30.64,NE,43,2.0,5.0,73,0.00,,,0.00,LWC V2.10 B1813,2013-01-22 01:08:00,
2013-01-21 16:13:00,6.2,-0.6,30.64,NE,52,2.0,3.0,73,0.00,,,0.00,LWC V2.10 B1813,2013-01-22 01:13:00,
2013-01-21 16:18:00,6.1,-0.7,30.64,NE,38,2.0,5.0,73,0.00,,,0.00,LWC V2.10 B1813,2013-01-22 01:18:00,
2013-01-21 16:23:00,6.0,-0.8,30.64,NNE,30,3.0,4.0,73,0.00,,,0.00,LWC V2.10 B1813,2013-01-22 01:23:00,
2013-01-21 16:28:00,5.9,-0.6,30.64,NNE,32,2.0,3.0,74,0.00,,,0.00,LWC V2.10 B1813,2013-01-22 01:28:00,
2013-01-21 16:33:00,5.8,-1.0,30.64,NE,43,1.0,3.0,73,0.00,,,0.00,LWC V2.10 B1813,2013-01-22 01:33:00,
2013-01-21 16:38:00,5.6,-1.1,30.64,ENE,65,1.0,3.0,73,0.00,,,0.00,LWC V2.10 B1813,2013-01-22 01:38:00,
2013-01-21 16:43:00,5.4,-1.1,30.64,ENE,76,2.0,6.0,74,0.00,,,0.00,LWC V2.10 B1813,2013-01-22 01:43:00,
2013-01-21 16:48:00,5.1,-1.3,30.64,East,82,0.0,1.0,74,0.00,,,0.00,LWC V2.10 B1813,2013-01-22 01:48:00,
2013-01-21 16:53:00,4.9,-1.3,30.64,East,82,0.0,1.0,75,0.00,,,0.00,LWC V2.10 B1813,2013-01-22 01:53:00,
2013-01-21 16:58:00,4.8,-1.1,30.64,East,82,0.0,2.0,76,0.00,,,0.00,LWC V2.10 B1813,2013-01-22 01:58:00,
2013-01-21 17:03:00,4.7,-1.2,30.64,ENE,69,1.0,3.0,76,0.00,,,0.00,LWC V2.10 B1813,2013-01-22 02:03:00,
2013-01-21 17:08:00,4.6,-1.5,30.63,ENE,68,0.0,1.0,75,0.00,,,0.00,LWC V2.10 B1813,2013-01-22 02:08:00,
2013-01-21 17:13:00,4.4,-1.5,30.63,ENE,69,0.0,1.0,76,0.00,,,0.00,LWC V2.10 B1813,2013-01-22 02:13:00,
2013-01-21 17:18:00,4.2,-1.4,30.63,ENE,69,1.0,2.0,77,0.00,,,0.00,LWC V2.10 B1813,2013-01-22 02:18:00,
2013-01-21 17:23:00,3.9,-1.7,30.63,ENE,70,3.0,3.0,77,0.00,,,0.00,LWC V2.10 B1813,2013-01-22 02:23:00,
2013-01-21 17:28:00,3.9,-1.7,30.63,NE,48,1.0,3.0,77,0.00,,,0.00,LWC V2.10 B1813,2013-01-22 02:28:00,
2013-01-21 17:33:00,4.1,-1.5,30.63,NE,36,0.0,2.0,77,0.00,,,0.00,LWC V2.10 B1813,2013-01-22 02:33:00,
2013-01-21 17:38:00,4.1,-1.8,30.63,NE,50,1.0,1.0,76,0.00,,,0.00,LWC V2.10 B1813,2013-01-22 02:38:00,
2013-01-21 17:43:00,3.9,-1.9,30.63,NE,51,1.0,4.0,76,0.00,,,0.00,LWC V2.10 B1813,2013-01-22 02:43:00,
2013-01-21 17:48:00,3.8,-1.8,30.63,NNE,29,2.0,4.0,77,0.00,,,0.00,LWC V2.10 B1813,2013-01-22 02:48:00,
2013-01-21 17:53:00,3.9,-1.7,30.63,NE,44,1.0,3.0,77,0.00,,,0.00,LWC V2.10 B1813,2013-01-22 02:53:00,
2013-01-21 17:58:00,3.9,-1.7,30.62,ENE,65,2.0,3.0,77,0.00,,,0.00,LWC V2.10 B1813,2013-01-22 02:58:00,
2013-01-21 18:03:00,3.9,-1.9,30.62,ENE,65,2.0,4.0,76,0.00,,,0.00,LWC V2.10 B1813,2013-01-22 03:03:00,
2013-01-21 18:08:00,3.9,-1.9,30.62,NE,36,1.0,4.0,76,0.00,,,0.00,LWC V2.10 B1813,2013-01-22 03:08:00,
2013-01-21 18:13:00,3.9,-1.7,30.62,NE,35,1.0,3.0,77,0.00,,,0.00,LWC V2.10 B1813,2013-01-22 03:13:00,
2013-01-21 18:18:00,3.9,-1.7,30.62,NE,36,0.0,1.0,77,0.00,,,0.00,LWC V2.10 B1813,2013-01-22 03:18:00,
2013-01-21 18:23:00,3.7,-1.9,30.62,NNE,30,0.0,1.0,77,0.00,,,0.00,LWC V2.10 B1813,2013-01-22 03:23:00,
2013-01-21 18:28:00,3.6,-2.0,30.62,North,355,1.0,3.0,77,0.00,,,0.00,LWC V2.10 B1813,2013-01-22 03:28:00,
2013-01-21 18:33:00,3.6,-1.7,30.61,NNE,26,3.0,4.0,78,0.00,,,0.00,LWC V2.10 B1813,2013-01-22 03:33:00,
2013-01-21 18:38:00,3.9,-1.7,30.61,NNE,29,2.0,4.0,77,0.00,,,0.00,LWC V2.10 B1813,2013-01-22 03:38:00,
2013-01-21 18:43:00,3.9,-1.9,30.61,ENE,74,3.0,3.0,76,0.00,,,0.00,LWC V2.10 B1813,2013-01-22 03:43:00,
2013-01-21 18:48:00,3.8,-2.0,30.61,North,355,0.0,4.0,76,0.00,,,0.00,LWC V2.10 B1813,2013-01-22 03:48:00,
2013-01-21 18:53:00,3.9,-1.9,30.61,ENE,67,2.0,4.0,76,0.00,,,0.00,LWC V2.10 B1813,2013-01-22 03:53:00,
2013-01-21 18:58:00,4.2,-1.7,30.61,NE,37,3.0,3.0,76,0.00,,,0.00,LWC V2.10 B1813,2013-01-22 03:58:00,
2013-01-21 19:03:00,4.2,-1.9,30.61,NE,42,3.0,4.0,75,0.00,,,0.00,LWC V2.10 B1813,2013-01-22 04:03:00,
2013-01-21 19:08:00,4.2,-1.9,30.61,NE,54,1.0,4.0,75,0.00,,,0.00,LWC V2.10 B1813,2013-01-22 04:08:00,
2013-01-21 19:13:00,4.1,-2.0,30.61,NE,55,3.0,3.0,75,0.00,,,0.00,LWC V2.10 B1813,2013-01-22 04:13:00,
2013-01-21 19:18:00,4.0,-1.9,30.61,NE,52,1.0,3.0,76,0.00,,,0.00,LWC V2.10 B1813,2013-01-22 04:18:00,
2013-01-21 19:23:00,3.9,-1.9,30.61,NE,53,1.0,4.0,76,0.00,,,0.00,LWC V2.10 B1813,2013-01-22 04:23:00,
2013-01-21 19:28:00,3.8,-2.0,30.61,NE,34,0.0,3.0,76,0.00,,,0.00,LWC V2.10 B1813,2013-01-22 04:28:00,
2013-01-21 19:33:00,3.7,-2.1,30.61,NE,38,2.0,5.0,76,0.00,,,0.00,LWC V2.10 B1813,2013-01-22 04:33:00,
2013-01-21 19:38:00,3.8,-2.0,30.61,NE,42,3.0,5.0,76,0.00,,,0.00,LWC V2.10 B1813,2013-01-22 04:38:00,
2013-01-21 19:43:00,3.9,-1.9,30.61,NE,40,3.0,4.0,76,0.00,,,0.00,LWC V2.10 B1813,2013-01-22 04:43:00,
2013-01-21 19:48:00,3.9,-1.9,30.61,NE,45,3.0,4.0,76,0.00,,,0.00,LWC V2.10 B1813,2013-01-22 04:48:00,
2013-01-21 19:53:00,4.0,-1.9,30.61,NE,55,2.0,4.0,76,0.00,,,0.00,LWC V2.10 B1813,2013-01-22 04:53:00,
2013-01-21 19:58:00,3.9,-2.2,30.61,ENE,73,2.0,3.0,75,0.00,,,0.00,LWC V2.10 B1813,2013-01-22 04:58:00,
2013-01-21 20:00:00,3.9,-2.2,30.61,ENE,74,2.0,4.0,75,0.00,,,0.00,LWC V2.10 B1813,2013-01-22 05:00:00,
2013-01-21 20:05:00,3.7,-2.1,30.61,ENE,57,3.0,4.0,76,0.00,,,0.00,LWC V2.10 B1813,2013-01-22 05:05:00,
2013-01-21 20:10:00,3.6,-2.2,30.61,NE,44,4.0,5.0,76,0.00,,,0.00,LWC V2.10 B1813,2013-01-22 05:10:00,
2013-01-21 20:15:00,3.6,-2.2,30.61,NE,54,1.0,4.0,76,0.00,,,0.00,LWC V2.10 B1813,2013-01-22 05:15:00,
2013-01-21 20:20:00,3.6,-2.0,30.60,NE,49,3.0,5.0,77,0.00,,,0.00,LWC V2.10 B1813,2013-01-22 05:20:00,
2013-01-21 20:25:00,3.6,-2.0,30.61,NNW,348,1.0,5.0,77,0.00,,,0.00,LWC V2.10 B1813,2013-01-22 05:25:00,
2013-01-21 20:30:00,3.6,-2.0,30.60,North,349,0.0,1.0,77,0.00,,,0.00,LWC V2.10 B1813,2013-01-22 05:30:00,
2013-01-21 20:35:00,3.5,-2.1,30.60,North,355,0.0,1.0,77,0.00,,,0.00,LWC V2.10 B1813,2013-01-22 05:35:00,
2013-01-21 20:40:00,3.4,-2.2,30.60,NE,51,3.0,3.0,77,0.00,,,0.00,LWC V2.10 B1813,2013-01-22 05:40:00,
2013-01-21 20:45:00,3.6,-1.7,30.60,NE,41,1.0,4.0,78,0.00,,,0.00,LWC V2.10 B1813,2013-01-22 05:45:00,
2013-01-21 20:50:00,3.8,-1.8,30.60,NNE,29,2.0,5.0,77,0.00,,,0.00,LWC V2.10 B1813,2013-01-22 05:50:00,
2013-01-21 20:55:00,4.2,-1.4,30.60,NE,41,2.0,3.0,77,0.00,,,0.00,LWC V2.10 B1813,2013-01-22 05:55:00,
2013-01-21 21:00:00,4.5,-1.4,30.60,NE,49,0.0,5.0,76,0.00,,,0.00,LWC V2.10 B1813,2013-01-22 06:00:00,
2013-01-21 21:05:00,4.6,-1.3,30.60,ENE,60,4.0,4.0,76,0.00,,,0.00,LWC V2.10 B1813,2013-01-22 06:05:00,
2013-01-21 21:10:00,4.7,-1.2,30.60,NE,37,3.0,4.0,76,0.00,,,0.00,LWC V2.10 B1813,2013-01-22 06:10:00,
2013-01-21 21:15:00,4.7,-1.2,30.60,NNE,32,2.0,4.0,76,0.00,,,0.00,LWC V2.10 B1813,2013-01-22 06:15:00,
2013-01-21 21:20:00,4.7,-1.2,30.60,NNE,21,1.0,4.0,76,0.00,,,0.00,LWC V2.10 B1813,2013-01-22 06:20:00,
2013-01-21 21:25:00,4.5,-1.4,30.60,NNE,20,0.0,0.0,76,0.00,,,0.00,LWC V2.10 B1813,2013-01-22 06:25:00,
2013-01-21 21:30:00,4.3,-1.6,30.59,NE,49,0.0,4.0,76,0.00,,,0.00,LWC V2.10 B1813,2013-01-22 06:30:00,
2013-01-21 21:35:00,4.2,-1.4,30.59,NE,49,0.0,2.0,77,0.00,,,0.00,LWC V2.10 B1813,2013-01-22 06:35:00,
2013-01-21 21:40:00,4.1,-1.5,30.59,NNE,26,0.0,3.0,77,0.00,,,0.00,LWC V2.10 B1813,2013-01-22 06:40:00,
2013-01-21 21:45:00,4.0,-1.6,30.59,ENE,59,2.0,3.0,77,0.00,,,0.00,LWC V2.10 B1813,2013-01-22 06:45:00,
2013-01-21 21:50:00,4.1,-1.5,30.59,ENE,74,4.0,5.0,77,0.00,,,0.00,LWC V2.10 B1813,2013-01-22 06:50:00,
2013-01-21 21:55:00,4.1,-1.5,30.59,ENE,57,3.0,6.0,77,0.00,,,0.00,LWC V2.10 B1813,2013-01-22 06:55:00,
2013-01-21 22:00:00,4.4,-1.2,30.59,NNE,31,3.0,3.0,77,0.00,,,0.00,LWC V2.10 B1813,2013-01-22 07:00:00,
2013-01-21 22:05:00,4.4,-1.5,30.59,NE,44,2.0,3.0,76,0.00,,,0.00,LWC V2.10 B1813,2013-01-22 07:05:00,
2013-01-21 22:10:00,4.4,-1.5,30.59,ENE,74,2.0,3.0,76,0.00,,,0.00,LWC V2.10 B1813,2013-01-22 07:10:00,
2013-01-21 22:15:00,4.3,-1.6,30.59,ENE,74,2.0,2.0,76,0.00,,,0.00,LWC V2.10 B1813,2013-01-22 07:15:00,
2013-01-21 22:20:00,4.1,-1.5,30.59,ENE,74,0.0,2.0,77,0.00,,,0.00,LWC V2.10 B1813,2013-01-22 07:20:00,
2013-01-21 22:25:00,4.0,-1.6,30.58,ENE,74,3.0,3.0,77,0.00,,,0.00,LWC V2.10 B1813,2013-01-22 07:25:00,
2013-01-21 22:30:00,3.9,-1.7,30.58,NNW,339,0.0,2.0,77,0.00,,,0.00,LWC V2.10 B1813,2013-01-22 07:30:00,
2013-01-21 22:35:00,3.8,-1.5,30.58,NNW,340,1.0,1.0,78,0.00,,,0.00,LWC V2.10 B1813,2013-01-22 07:35:00,
2013-01-21 22:40:00,3.7,-1.6,30.58,NNW,342,1.0,2.0,78,0.00,,,0.00,LWC V2.10 B1813,2013-01-22 07:40:00,
2013-01-21 22:45:00,3.6,-1.4,30.58,NNW,341,2.0,3.0,79,0.00,,,0.00,LWC V2.10 B1813,2013-01-22 07:45:00,
2013-01-21 22:50:00,3.6,-1.7,30.58,NNW,340,0.0,0.0,78,0.00,,,0.00,LWC V2.10 B1813,2013-01-22 07:50:00,
2013-01-21 22:55:00,3.6,-1.4,30.58,NNW,340,1.0,1.0,79,0.00,,,0.00,LWC V2.10 B1813,2013-01-22 07:55:00,
2013-01-21 23:00:00,3.7,-1.3,30.58,NNW,340,0.0,1.0,79,0.00,,,0.00,LWC V2.10 B1813,2013-01-22 08:00:00,
2013-01-21 23:05:00,3.9,-1.1,30.58,NNW,340,0.0,0.0,79,0.00,,,0.00,LWC V2.10 B1813,2013-01-22 08:05:00,
2013-01-21 23:10:00,3.8,-1.5,30.58,NE,46,2.0,4.0,78,0.00,,,0.00,LWC V2.10 B1813,2013-01-22 08:10:00,
2013-01-21 23:15:00,3.9,-1.4,30.58,NE,38,3.0,5.0,78,0.00,,,0.00,LWC V2.10 B1813,2013-01-22 08:15:00,
2013-01-21 23:20:00,4.2,-1.1,30.58,NE,37,2.0,3.0,78,0.00,,,0.00,LWC V2.10 B1813,2013-01-22 08:20:00,
2013-01-21 23:25:00,4.3,-1.0,30.58,NNE,28,0.0,1.0,78,0.00,,,0.00,LWC V2.10 B1813,2013-01-22 08:25:00,
2013-01-21 23:30:00,4.3,-1.0,30.57,NNE,15,0.0,1.0,78,0.00,,,0.00,LWC V2.10 B1813,2013-01-22 08:30:00,
2013-01-21 23:35:00,4.3,-1.0,30.57,NNE,21,0.0,6.0,78,0.00,,,0.00,LWC V2.10 B1813,2013-01-22 08:35:00,
2013-01-21 23:40:00,4.4,-0.9,30.57,NNE,18,0.0,1.0,78,0.00,,,0.00,LWC V2.10 B1813,2013-01-22 08:40:00,
2013-01-21 23:45:00,4.4,-0.9,30.57,NNE,15,0.0,4.0,78,0.00,,,0.00,LWC V2.10 B1813,2013-01-22 08:45:00,
2013-01-21 23:50:00,4.5,-0.8,30.57,North,5,3.0,5.0,78,0.00,,,0.00,LWC V2.10 B1813,2013-01-22 08:50:00,
2013-01-21 23:55:00,4.6,-0.4,30.57,NNW,342,0.0,2.0,79,0.00,,,0.00,LWC V2.10 B1813,2013-01-22 08:55:00,